Regional Weather Roundup
Issued by NWS Boston, MA

Current Version | Previous Version | Text Only | Print | Product List | Glossary Off
Versions: 1 2 3 4 5 6 7 8 9 10 11 12 13 14 15 16 17 18 19 20 21 22 23 24 25 26 27 28 29 30 31 32 33 34 35 36 37 38 39 40 41 42 43 44 45 46 47 48 49 50
000 ASUS41 KBOX 161510 RWRBOX REGIONAL WEATHER ROUNDUP NATIONAL WEATHER SERVICE TAUNTON MA 1000 AM EST TUE JAN 16 2018 NOTE: "FAIR" INDICATES FEW OR NO CLOUDS BELOW 12,000 FEET WITH NO SIGNIFICANT WEATHER AND/OR OBSTRUCTIONS TO VISIBILITY. MAZALL-161600- EASTERN MASSACHUSETTS CITY SKY/WX TMP DP RH WIND PRES REMARKS BOSTON PTSUNNY 27 20 75 CALM 30.54R BEVERLY FAIR 27 18 69 CALM 30.53R LAWRENCE PTSUNNY 25 16 68 W3 30.55S BEDFORD PTSUNNY 24 13 62 VRB3 30.52F BLUE HILL N/A 26 19 74 S5 30.48R WCI 20 NORWOOD CLOUDY 29 18 63 CALM 30.54R MARSHFIELD FAIR 30 27 86 CALM 30.52F PLYMOUTH FAIR 30 25 81 E3 30.52S TAUNTON PTSUNNY 29 20 69 CALM 30.53R NEW BEDFORD CLOUDY 31 22 69 CALM 30.53R $$ MAZALL-161600- CAPE COD AND THE ISLANDS CITY SKY/WX TMP DP RH WIND PRES REMARKS FALMOUTH FAIR 28 25 86 MISG 30.53 HYANNIS FAIR 33 27 78 N5 30.51S WCI 29 CHATHAM PTSUNNY 34 25 69 CALM 30.53S PROVINCETOWN PTSUNNY 31 24 75 MISG N/A NANTUCKET FAIR 33 28 81 N10 30.53S WCI 25 MARTHAS VNYRD FAIR 30 28 92 NE6 30.53R WCI 24 $$ MAZALL-161600- CENTRAL AND WESTERN MASSACHUSETTS CITY SKY/WX TMP DP RH WIND PRES REMARKS WORCESTER CLOUDY 21 13 71 S6 30.46S WCI 13 FITCHBURG CLOUDY 24 13 62 CALM 30.53R ORANGE CLOUDY N/A N/A N/A VRB5 30.50F SPRINGFIELD FLURRIES 24 11 58 S5 30.51 WCI 18 WESTFIELD PTSUNNY 24 13 62 S7 30.51F WCI 16 NORTH ADAMS CLOUDY 24 18 77 VRB5 30.45S WCI 18 PITTSFIELD LGT SNOW 22 17 81 NW3 30.41S $$ RIZALL-161600- RHODE ISLAND CITY SKY/WX TMP DP RH WIND PRES REMARKS PROVIDENCE PTSUNNY 28 17 63 CALM 30.55R NEWPORT PTSUNNY 31 22 69 NW5 30.53R WCI 26 BLOCK ISLAND CLOUDY 33 27 78 S6 30.54S WCI 28 WESTERLY PTSUNNY 32 22 66 CALM 30.55R $$ CTZALL-161600- CONNECTICUT CITY SKY/WX TMP DP RH WIND PRES REMARKS BRADLEY INTL CLOUDY 24 13 62 SE5 30.54R WCI 18 HARTFORD CLOUDY N/A N/A N/A CALM 30.54F BRIDGEPORT CLOUDY 26 17 68 E5 30.53F WCI 20 DANBURY FAIR 27 20 75 SE3 30.50S GROTON CLOUDY 31 20 63 CALM 30.53F NEW HAVEN CLOUDY 26 15 63 CALM 30.52F CHESTER PTSUNNY 27 18 69 CALM 30.50F MERIDEN CLOUDY 23 13 65 W5 30.53F WCI 17 WILLIMANTIC CLOUDY 25 15 66 SW3 30.53F OXFORD PTSUNNY 25 19 80 CALM 30.49S $$ MEZ002-015-021-024-NHZ003-005-008-011-012-014-VTZ005-008-161600- NORTHERN NEW ENGLAND CITY SKY/WX TMP DP RH WIND PRES REMARKS PORTLAND ME FAIR 19 11 70 CALM 30.53F BANGOR ME FAIR 15 8 73 CALM 30.52R CONCORD NH CLOUDY 19 12 74 VRB3 30.52R MANCHESTER NH CLOUDY 21 12 68 CALM 30.52R NASHUA NH PTSUNNY 22 11 62 CALM 30.54R PORTSMOUTH NH PTSUNNY 22 12 66 W3 30.53R JAFFREY NH CLOUDY 21 16 81 SW5 30.45R WCI 15 KEENE NH CLOUDY 21 15 78 SW3 30.50F BURLINGTON VT PTSUNNY 21 15 78 S9 30.44R WCI 11 MT. WASHINGTON SNOWSHWR 5 5 100 W36G41 N/A VSB 1/8 WCI -21 $$ NYZ052-076-161600- EASTERN NEW YORK CITY SKY/WX TMP DP RH WIND PRES REMARKS ALBANY LGT SNOW 24 17 74 S8 30.48R WCI 15 NEW YORK CITY CLOUDY 29 24 82 NE8 30.51S WCI 21 $$ ANZALL-161600- MARINE OBSERVATIONS STATION/POSITION TIME TEMP WIND PRES VSBY WAVE AIR SEA DIR/SP/G HT/PER (UTC) (F) (DEG/KT/KT) (MB) (MI) (FT/S) BOSTON BUOY 1350 28 41 20/ 4/ 4 1033.0 9/10 BUZZARDS BAY 1400 29 80/ 9/ 10 1034.0F NANTUCKET SOUND 1350 31 34 350/ 12/ 14 1033.7 2/ 3 MASS BAY-STELLWA 1404 27 40 1032.7F 8/11 ISLE OF SHOALS 1400 23 10/ 6/ 7 1033.6R S OF BLOCK IS 1443 41 N/A 5/11 $$ ......................KEY......................... SKY/WX - SKY CONDITION/PRESENT WEATHER TMP - TEMPERATURE IN FAHRENHEIT DWPT - DEWPOINT IN FAHRENHEIT RH - RELATIVE HUMIDITY IN PERCENT WIND - DIRECTION AND SPEED IN MPH PRES - MEAN SEA LEVEL PRESSURE IN INCHES OF HG WCI - WIND CHILL INDEX VSB - VISIBILITY IN MILES HX - HEAT INDEX TC - TEMPERATURE IN CELSIUS VRB - VARIABLE WIND DIRECTION N/A - NOT AVAILABLE

USA.gov is the U.S. government's official web portal to all federal, state and local government web resources and services.